Content
SEND FEEDBACK

Daily
Averages
Monthly
Summary
United States of America

RAVENNA, OHIO


Home > North America > United States > Ohio
Elevation: 1100 feet     Latitude: 41 08N     Longitude: 081 14W

WEATHER
 
SELECT A DAY
Number of Records: 81,254;   Date Range: 3/31/11 - 8/29/14
 
SHARE

PRINT THIS DATA

[ ← Previous Day ]
WEATHER ALMANAC - JANUARY 23, 2013
[ Next Day → ]
[ °C ]   °F
Weather ElementAverageHighLow
Temperature10.2 °F14 °F (2:35 pm)5.2 °F (5:15 am)
Dewpoint2.7 °F10.2 °F (10:15 pm)-3.1 °F (1:15 am)
Humidity72.3 %88 % (10:35 pm)59 % (12:15 pm)
Barometer30.15 in30.23 in (9:35 am)30.03 in (11:15 pm)
Wind Speed6.3 mph12.7 mph (6:15 am)
Wind Gust20.7 mph (7:15 am)
Weather ElementAverage
Visibility7.8 mi
Wind DirectionS (179.7 °)

Weather ElementTotal
Precipitation---
Heating Degree Days55.4 (Base 65)
Averaged from 71 records on January 23, 2013
WEATHER CONDITIONS BREAKOUT
WIND DIRECTION BREAKOUT
WEATHER BY HOUR - JANUARY 23, 2013
[ °C ]   °F
Local TimeTemperatureDewpointHumidityBarometerVisibilityWind DirectionWind SpeedGust SpeedPrecipitationEventsConditions
12:35 AM6.3 °F-2.4 °F68 %30.21 in10.0 miWSW (250°)10.4 mphClear
12:55 AM6.3 °F-2.4 °F68 %30.21 in10.0 miWSW (250°)9.2 mphScattered Clouds
1:15 AM6.3 °F-3.1 °F65 %30.21 in10.0 miWSW (250°)10.4 mph18.4 mphClear
1:35 AM5.7 °F-3.1 °F67 %30.21 in10.0 miWSW (250°)8.1 mphClear
1:55 AM5.5 °F-2.9 °F68 %30.21 in10.0 miWSW (250°)10.4 mphClear
2:15 AM5.4 °F-3.1 °F68 %30.21 in10.0 miWSW (250°)8.1 mphClear
2:35 AM5.4 °F-3.1 °F68 %30.22 in10.0 miWSW (250°)11.5 mphClear
2:55 AM5.4 °F-3.1 °F68 %30.22 in10.0 miWSW (250°)9.2 mphClear
3:15 AM5.4 °F-3.1 °F68 %30.21 in10.0 miWSW (240°)9.2 mphClear
3:35 AM5.5 °F-2.9 °F68 %30.21 in10.0 miWSW (250°)10.4 mphScattered Clouds
3:55 AM5.5 °F-2.9 °F68 %30.21 in10.0 miWSW (250°)10.4 mphScattered Clouds
4:15 AM5.4 °F-2.7 °F69 %30.21 in10.0 miWSW (250°)10.4 mphClear
4:35 AM5.5 °F-2.9 °F68 %30.21 in10.0 miWSW (250°)9.2 mphClear
4:56 AM5.4 °F-2.6 °F70 %30.21 in10.0 miWSW (250°)8.1 mphClear
5:15 AM5.2 °F-2.2 °F72 %30.20 in10.0 miWSW (250°)8.1 mphClear
5:35 AM5.4 °F-2.0 °F72 %30.20 in10.0 miWSW (250°)9.2 mphClear
5:56 AM5.5 °F-1.5 °F73 %30.20 in10.0 miWSW (250°)10.4 mph16.1 mphClear
6:15 AM5.5 °F-1.5 °F73 %30.21 in10.0 miWSW (250°)12.7 mphClear
6:35 AM5.7 °F-1.3 °F73 %30.21 in10.0 miWSW (250°)9.2 mph17.3 mphClear
6:56 AM5.9 °F-1.3 °F72 %30.21 in10.0 miWSW (240°)10.4 mphClear
7:15 AM6.1 °F-1.1 °F72 %30.22 in10.0 miWSW (240°)11.5 mph20.7 mphScattered Clouds
7:35 AM6.3 °F-0.6 °F73 %30.22 in10.0 miWSW (250°)11.5 mph16.1 mphMostly Cloudy
7:56 AM6.4 °F-0.4 °F74 %30.22 in10.0 miWSW (250°)10.4 mphOvercast
8:15 AM6.8 °F0.1 °F74 %30.22 in10.0 miWSW (250°)9.2 mphOvercast
8:35 AM6.8 °F0.1 °F74 %30.22 in10.0 miWSW (240°)8.1 mphOvercast
8:55 AM7.3 °F0.7 °F74 %30.22 in10.0 miWSW (250°)8.1 mphOvercast
9:15 AM7.7 °F1.2 °F75 %30.22 in10.0 miWSW (250°)8.1 mphOvercast
9:35 AM7.9 °F1.2 °F74 %30.23 in10.0 miWSW (240°)8.1 mphSnowLight Snow
9:55 AM8.6 °F1.9 °F74 %30.23 in7.0 miWSW (250°)6.9 mphSnowLight Snow
10:15 AM9.0 °F1.0 °F70 %30.23 in10.0 miWest (260°)8.1 mphOvercast
10:35 AM9.5 °F1.4 °F70 %30.23 in10.0 miWSW (250°)9.2 mphOvercast
10:56 AM10.2 °F1.8 °F69 %30.22 in10.0 miSW (230°)6.9 mphOvercast
11:15 AM11.1 °F1.9 °F67 %30.22 in10.0 miWest (270°)8.1 mphOvercast
11:35 AM11.3 °F1.9 °F66 %30.21 in10.0 miSW (230°)6.9 mphOvercast
11:56 AM12.2 °F1.6 °F63 %30.20 in10.0 miWest (260°)10.4 mph16.1 mphOvercast
12:15 PM12.9 °F1.0 °F59 %30.19 in10.0 miWest (270°)11.5 mphOvercast
12:35 PM13.6 °F2.1 °F60 %30.18 in10.0 miWSW (250°)11.5 mphMostly Cloudy
12:56 PM12.9 °F2.3 °F63 %30.17 in7.0 miWest (270°)8.1 mphOvercast
1:15 PM13.6 °F2.7 °F62 %30.16 in10.0 miWSW (250°)9.2 mphOvercast
1:35 PM13.8 °F2.7 °F61 %30.15 in7.0 miWest (260°)10.4 mphOvercast
1:55 PM13.8 °F3.9 °F65 %30.14 in7.0 miWest (260°)8.1 mphOvercast
2:15 PM13.5 °F4.1 °F66 %30.13 in4.0 miWest (260°)9.2 mphHaze
2:35 PM14.0 °F4.6 °F66 %30.13 in7.0 miWSW (250°)9.2 mphOvercast
2:55 PM14.0 °F4.1 °F65 %30.13 in7.0 miWSW (240°)8.1 mphOvercast
3:15 PM14.0 °F4.3 °F65 %30.12 in7.0 miSW (220°)6.9 mphOvercast
3:35 PM13.8 °F5.5 °F70 %30.12 in4.0 miSW (230°)4.6 mphSnowLight Snow
3:56 PM14.0 °F5.0 °F67 %30.12 in5.0 miWSW (240°)3.5 mphSnowLight Snow
4:15 PM14.0 °F5.5 °F69 %30.11 in5.0 miSW (230°)3.5 mphHaze
4:35 PM13.6 °F5.2 °F69 %30.11 in5.0 miSW (230°)3.5 mphSnowLight Snow
4:55 PM13.8 °F5.4 °F69 %30.10 in10.0 miCalmOvercast
5:15 PM13.6 °F5.5 °F70 %30.10 in7.0 miCalmOvercast
5:35 PM13.1 °F6.1 °F74 %30.09 in5.0 miSSW (200°)3.5 mphSnowLight Snow
5:55 PM13.1 °F5.5 °F72 %30.08 in7.0 miSSW (200°)3.5 mphOvercast
6:15 PM13.1 °F5.9 °F73 %30.07 in10.0 miSSW (200°)3.5 mphOvercast
6:35 PM13.1 °F6.3 °F74 %30.07 in10.0 miCalmOvercast
6:55 PM13.1 °F6.6 °F75 %30.08 in10.0 miCalmOvercast
7:15 PM13.1 °F6.8 °F76 %30.08 in10.0 miCalmOvercast
7:35 PM13.5 °F7.5 °F77 %30.08 in7.0 miCalmSnowLight Snow
7:55 PM13.5 °F8.2 °F80 %30.07 in5.0 miCalmSnowLight Snow
8:15 PM13.5 °F9.0 °F82 %30.06 in3.0 miCalmSnowLight Snow
8:35 PM13.5 °F9.1 °F83 %30.06 in4.0 miCalmSnowLight Snow
8:56 PM13.6 °F9.5 °F84 %30.06 in2.0 miCalmSnowLight Snow
9:15 PM13.6 °F9.7 °F84 %30.06 in1.5 miCalmSnowLight Snow
9:35 PM13.5 °F9.9 °F86 %30.05 in1.5 miCalmSnowLight Snow
9:55 PM13.5 °F10.0 °F86 %30.05 in2.5 miCalmSnowLight Snow
10:15 PM13.5 °F10.2 °F87 %30.05 in1.5 miCalmSnowLight Snow
10:35 PM13.3 °F10.2 °F88 %30.04 in1.8 miCalmSnowLight Snow
10:55 PM12.9 °F9.5 °F86 %30.04 in2.0 miCalmSnowLight Snow
11:15 PM12.7 °F9.5 °F87 %30.03 in2.0 miCalmSnowLight Snow
11:35 PM12.4 °F9.5 °F88 %30.03 in2.5 miCalmSnowLight Snow
11:56 PM12.0 °F9.1 °F88 %30.03 in3.0 miCalmSnowLight Snow
Hourly data recorded from KPOV, located miles away from Ravenna, Ohio







STORIES FROM OUR PARTNERS